Погода в Соснице

Украина / Черниговская область     51°31′34″N   32°30′52″E
темп.,
°C
ветер,
м/с
пор.,
м/с
влажн.,
%
обл.,
%
осадки,
мм/ч
давл.,
гПа
погр.,
м
4 марта, чт
чт423:00−1зюз410890 0.0 1020218
02:00−1зюз49880 0.0 1019221
05:00−4юз410930 0.0 1015184
08:00−2юз612940 0.0 1012306
11:00+1юз51110023 0.0 1010381
14:00+2юз51110055 0.0 1007418
17:00+2зюз49100100 0.0 1006236
20:00+2зюз410100100 0.1 1006250
5 марта, пт
пт523:000сз389589 0.4 1007279
02:00−2зсз359381 0.4 1008105
05:00−3сз359525 0.0 101099
08:00−1с349460 0.0 1011214
11:000ссв238791 0.0 1012457
14:00+1ссз237795 0.0 1013770
17:00−1с2379100 0.1 101490
20:00−2с2383100 0.1 101667
6 марта, сб
сб623:00−3сз2382100 0.0 101769
02:00−3ссз4981100 0.0 1019427
05:00−5ссз387741 0.0 1019332
08:00−4сз596721 0.0 1021809
11:00−2сз585842 0.0 10221430
14:00−1сз467370 0.1 1021967
17:00−2ссз367066 0.1 1022216
20:00−4зсз367432 0.1 1023148
7 марта, вс
вс723:00−4зюз36780 0.0 1024157
02:00−5зюз510840 0.0 1022294
05:00−5юз6147520 0.0 1019487
08:00−3юз9166961 0.0 1017747
11:000зюз111767100 0.0 10131289
14:00+1зюз101669100 0.0 10111308
17:00+1зюз71476100 0.0 1009916
20:000зюз7158297 0.0 1008845
8 марта, пн
пн823:000зюз8158393 0.0 10071055
02:00−1зсз8139696 0.3 1007759
05:00−2зсз61275100 0.4 1008937
08:00−3зсз7106963 0.4 10101058
11:00−2зсз576592 0.0 10121075
14:00−1зсз466296 0.1 10121210
17:00−2зсз3570100 0.1 1012819
20:00−3с2282100 0.1 1013110